RH
36 30 29 32 30 30 32 33 35 37 36 36 36 38 38 37 36 39 44 46 44 37
36 34 30 32 35 31 34 28 32 37 40 40 42 43 44 41 42 43 49 52 51 47
35 33 31 35 36 37 37 35 36 39 40 40 41 42 44 43 43 44 46 43 46 47
32 31 33 35 36 35 37 36 38 39 41 42 42 42 44 46 46 48 47 45 47 49
33 35 37 36 36 38 40 41 42 42 41 40 39 40 42 46 45 47 49 47 46 45
38 37 37 37 38 38 41 41 39 38 39 38 40 41 43 45 48 49 50 51 50 48
39 40 40 40 40 43 42 41 37 38 39 43 41 41 45 46 50 53 55 62 65 63
41 42 40 40 43 42 40 36 36 38 40 42 43 40 49 49 55 60 63 67 66 66
42 39 40 41 42 39 35 34 36 39 42 47 40 57 67 66 69 70 71 76 69 66
40 41 41 39 34 33 35 36 38 41 47 51 52 64 66 69 74 84 80 75 73 65
40 40 39 35 32 33 35 38 42 50 52 54 52 69 70 73 79 88 82 79 74 74
40 40 35 33 36 36 40 44 50 54 58 64 70 73 74 78 91 94 88 76 76 74
39 36 33 33 35 37 44 50 60 66 69 73 87 80 79 86 95 99 86 81 80 79
35 33 32 34 36 39 54 73 90 92 92 88 89 95 82 84 99 94 89 81 78 80
Wind_Speed
7 5 4 2 3 4 5 6 10 11 13 14 15 15 15 14 14 17 15 21 18 15
6 5 3 4 4 5 7 8 11 12 14 15 15 16 16 14 17 17 16 17 18 16
7 5 4 4 6 8 9 11 12 14 15 16 16 17 17 16 17 18 15 14 19 19
7 5 4 6 7 9 11 12 14 15 15 17 17 17 17 18 19 20 20 20 20 22
5 4 6 8 10 11 13 13 14 15 16 17 18 17 18 19 18 19 20 21 22 23
6 6 8 9 11 12 13 14 15 16 17 18 17 18 18 19 20 20 21 22 22 23
7 6 8 10 12 13 13 15 16 16 17 18 18 18 19 19 20 20 18 19 19 20
5 7 9 11 13 14 14 15 16 17 18 18 17 14 18 18 19 17 19 19 19 19
6 9 11 12 14 15 16 16 17 18 18 19 14 20 19 20 16 19 19 18 19 18
7 10 12 13 15 16 17 18 18 18 18 19 20 21 24 25 15 17 18 19 17 17
9 11 13 14 15 16 16 17 17 18 19 19 17 24 27 27 18 17 20 20 20 19
10 12 14 15 15 16 16 16 17 17 19 20 19 26 28 25 17 16 18 17 18 19
10 12 14 15 16 16 16 17 14 18 19 22 18 26 28 24 12 14 13 15 17 24
10 12 13 14 14 16 15 15 15 16 15 17 17 18 27 28 15 12 12 12 12 11
Wind_Direction
199 211 220 223 297 304 309 300 299 295 292 288 288 285 281 276 271 270 267 264 259 259
186 194 222 253 285 298 295 294 296 295 290 288 286 281 278 273 269 267 265 261 258 255
186 197 223 263 294 299 294 290 289 286 282 281 276 273 271 271 267 264 262 259 257 254
198 212 266 292 288 291 294 289 284 282 280 276 275 274 272 270 272 270 269 266 260 254
208 238 262 283 292 292 284 282 278 278 276 275 275 275 272 271 270 269 267 264 263 262
225 246 272 288 292 290 286 285 282 280 278 279 279 278 275 272 271 268 268 267 265 260
238 265 288 297 295 294 291 288 286 285 285 283 282 279 276 274 272 270 266 263 260 266
256 287 298 299 300 296 293 290 289 288 287 285 282 279 282 282 281 278 274 265 260 258
288 302 305 306 302 298 297 296 295 293 291 290 286 288 284 279 273 271 270 266 260 256
306 306 310 307 303 302 302 300 298 297 297 293 292 292 287 282 275 269 265 263 261 257
312 310 311 306 304 305 303 302 302 302 300 297 296 291 288 284 276 268 264 261 261 259
316 312 308 306 309 306 304 303 304 303 303 301 294 293 290 288 280 272 267 263 258 256
312 307 308 309 310 307 305 306 311 304 300 297 293 291 291 290 280 274 268 263 257 250
312 310 312 307 308 310 313 312 300 299 297 291 285 284 287 287 281 274 271 268 264 256